[[{"header":{"parameterUnit":"m.s-1","parameterCategory":1,"la1":30.2991,"la2":30.254,"lo1":-89.0895,"lo2":-89.0444,"dy":0.0017,"dx":0.0017,"nx":28,"ny":28,"refTime":"2024-08-25T03:00:00:Z","depth":0,"parameterNumber":2,"parameterNumberName":"U-component_of_WINDS"},"data":[0,0,0,0,0,0,0,0,0,0,0,0,0,0,0,0,0,0,0,0,0,0,0,0,0,0,0,0,0,0,0,0,0,0,0,0,0,0,0,0,0,0,0,0,0,0,0,0,0,0,0,0,0,0,0,0,0,0,-0.8138,-0.8139,0,-0.817,-0.817,-0.817,-0.8116,-0.8114,-0.8113,-0.8111,-0.8144,-0.8147,-0.8149,0,0,0,0,0,0,0,0,0,0,0,0,0,-0.8033,-0.8035,-0.8138,-0.8139,-0.8139,-0.8169,-0.817,-0.817,-0.8116,-0.8114,-0.8112,-0.811,-0.8143,-0.8146,-0.8149,0,0,0,0,0,0,0,0,0,0,0,0,0,-0.8073,-0.8036,-0.8138,-0.8116,-0.8114,-0.8169,-0.817,-0.817,-0.8117,-0.8114,-0.8111,-0.8109,-0.8142,-0.8146,-0.815,-0.8229,0,0,-0.8162,-0.8163,0,0,0,0,0,0,0,0,-0.8071,-0.8077,-0.8119,-0.8117,-0.8116,-0.8136,-0.8145,-0.819,-0.8118,-0.8116,-0.8111,-0.8108,-0.8144,-0.8147,-0.8159,-0.823,-0.8232,-0.8162,-0.8164,-0.8166,-0.8167,0,0,0,0,0,0,0,-0.8068,-0.8075,-0.8151,-0.8119,-0.8118,-0.8104,-0.8107,-0.8153,-0.8145,-0.8116,-0.8112,-0.8116,-0.8142,-0.8156,-0.816,-0.8232,-0.8162,-0.8165,-0.8168,-0.8169,-0.837,-0.8372,0,0,0,0,0,0,-0.8068,-0.8073,-0.815,-0.8152,-0.8086,-0.8109,-0.8112,-0.8132,-0.8144,-0.8143,-0.8119,-0.8114,-0.815,-0.8155,-0.8161,-0.8254,-0.8166,-0.817,-0.8172,-0.8367,-0.837,-0.8373,0,0,0,0,0,0,-0.8066,-0.8075,-0.8148,-0.8111,-0.812,-0.8113,-0.8137,-0.8134,-0.8148,-0.8146,-0.8145,-0.8134,-0.8148,-0.8155,-0.8212,-0.8255,-0.8171,-0.8175,-0.8363,-0.8368,-0.8372,-0.8442,0,0,0,0,0,0,-0.8063,-0.8075,-0.8105,-0.8112,-0.8122,-0.82,-0.814,-0.8137,-0.8154,-0.8148,-0.816,-0.8159,-0.8147,-0.8207,-0.8216,-0.8258,-0.8178,-0.8359,-0.8365,-0.837,-0.8436,-0.8448,-0.8459,0,0,0,0,0,-0.8059,-0.8123,-0.8106,-0.8116,-0.8159,-0.8202,-0.8208,-0.8191,-0.8158,-0.8188,-0.8187,-0.8159,-0.8248,-0.8213,-0.8223,-0.8267,-0.8357,-0.8363,-0.837,-0.8431,-0.8446,-0.8459,0,0,0,0,0,0,-0.8122,-0.8124,-0.8105,-0.8174,-0.8188,-0.8193,-0.8231,-0.8208,-0.8232,-0.8226,-0.8205,-0.8208,-0.8269,-0.8274,-0.8234,-0.8344,-0.8297,-0.8306,-0.8339,-0.8354,-0.8365,-0.8363,-0.8181,0,0,0,0,0,-0.8143,-0.8177,-0.8178,-0.8238,-0.8246,-0.8237,-0.8255,-0.8241,-0.8256,-0.8262,-0.8265,-0.828,-0.8311,-0.8332,-0.8361,-0.8435,-0.8438,-0.8471,-0.8482,-0.8492,-0.85,-0.854,-0.8555,-0.8395,-0.8395,-0.8395,0,0,-0.8188,-0.8194,-0.8217,-0.8251,-0.826,-0.8297,-0.8243,-0.8284,-0.8311,-0.8268,-0.8322,-0.8325,-0.834,-0.8406,-0.8436,-0.8412,-0.8545,-0.85,-0.8508,-0.8511,-0.8549,-0.8564,-0.8577,-0.84,-0.8399,-0.8398,0,0,-0.829,-0.8297,-0.8348,-0.8358,-0.8373,-0.8367,-0.8379,-0.8387,-0.8387,-0.8441,-0.8409,-0.8441,-0.8495,-0.8508,-0.8521,-0.8626,-0.8601,-0.8636,-0.8697,-0.8736,-0.8748,-0.8759,-0.8798,-0.8811,-0.8644,-0.8644,-0.8644,0,-0.8344,-0.8398,-0.8377,-0.8421,-0.8437,-0.8398,-0.845,-0.8461,-0.8485,-0.8497,-0.847,-0.8537,-0.8545,-0.8613,-0.8639,-0.865,-0.8664,-0.8635,-0.8748,-0.8759,-0.8769,-0.8805,-0.882,-0.8648,-0.8648,-0.8647,-0.8647,0,-0.8464,-0.8502,-0.8541,-0.8565,-0.8585,-0.8632,-0.8619,-0.8642,-0.8626,-0.8622,-0.8678,-0.8685,-0.8715,-0.873,-0.8715,-0.8796,-0.8781,-0.8751,-0.8704,-0.8789,-0.8822,-0.8836,-0.8654,-0.8653,-0.8652,-0.8651,0,0,-0.8607,-0.8618,-0.8633,-0.8643,-0.8656,-0.8685,-0.873,-0.8758,-0.8779,-0.8796,-0.8834,-0.888,-0.8852,-0.8868,-0.8853,-0.8887,-0.8971,-0.8853,-0.8853,-0.8876,-0.9062,-0.9085,-0.9101,-0.8954,-0.8956,-0.8958,-0.9061,0,-0.8709,-0.8787,-0.877,-0.8847,-0.8881,-0.8845,-0.8884,-0.8897,-0.8894,-0.8923,-0.892,-0.8954,-0.8914,-0.8923,-0.8955,-0.8954,-0.9008,-0.8946,-0.899,-0.8991,-0.8988,-0.9119,-0.9144,-0.924,-0.9074,-0.9076,-0.9077,0,-0.8838,-0.886,-0.894,-0.8947,-0.8961,-0.8997,-0.9021,-0.9049,-0.9062,-0.9058,-0.9074,-0.9053,-0.9098,-0.9049,-0.9111,-0.9069,-0.9085,-0.9087,-0.9091,-0.9095,-0.9041,-0.9128,-0.9271,-0.9286,-0.9098,-0.9096,-0.9095,0,-0.8935,-0.8984,-0.9039,-0.9048,-0.9058,-0.9084,-0.9089,-0.9099,-0.9117,-0.9138,-0.915,-0.9176,-0.9191,-0.9212,-0.9199,-0.9164,-0.9263,-0.9212,-0.9262,-0.9262,-0.9286,-0.9285,-0.9434,-0.9294,-0.9294,-0.9294,-0.9293,0,-0.9051,-0.9102,-0.9083,-0.9117,-0.9173,-0.9152,-0.9208,-0.9209,-0.9218,-0.9251,-0.9221,-0.9253,-0.9232,-0.9263,-0.9252,-0.9306,-0.9312,-0.9311,-0.9308,-0.9314,-0.9315,-0.9326,-0.9319,-0.9298,-0.9297,-0.9296,-0.9295,0,-0.9171,-0.9159,-0.9217,-0.922,-0.9222,-0.9263,-0.9267,-0.9298,-0.9292,-0.9335,-0.9344,-0.9336,-0.937,-0.9358,-0.9394,-0.9387,-0.9455,-0.9443,-0.9451,-0.9449,-0.9499,-0.9495,-0.9662,-0.9683,-0.9528,-0.953,-0.9531,0,-0.9246,-0.9284,-0.9292,-0.9312,-0.9319,-0.9351,-0.9369,-0.935,-0.937,-0.9387,-0.9417,-0.9448,-0.9472,-0.9528,-0.9526,-0.9554,-0.9542,-0.9599,-0.9546,-0.9552,-0.9544,-0.9543,-0.9547,-0.961,-0.9612,-0.9613,-0.9614,0,-0.9382,-0.9374,-0.9401,-0.9426,-0.9448,-0.9467,-0.9483,-0.9502,-0.9483,-0.9507,-0.9541,-0.956,-0.9597,-0.9629,-0.9653,-0.9658,-0.9634,-0.963,-0.9644,-0.9652,-0.9655,-0.9655,-0.9481,-0.9627,-0.9626,-0.9625,-0.9624,-0.9624,-0.9482,-0.9514,-0.9524,-0.9555,-0.9565,-0.9581,-0.9611,-0.9608,-0.9637,-0.9665,-0.9651,-0.9691,-0.9703,-0.9733,-0.9742,-0.9773,-0.9751,-0.977,-0.9775,-0.978,-0.9787,-0.9649,-0.9777,-0.9777,-0.9776,-0.9776,-0.9776,0,-0.9617,-0.9621,-0.965,-0.9673,-0.9698,-0.9671,-0.9687,-0.971,-0.9745,-0.9757,-0.9781,-0.9821,-0.9851,-0.985,-0.9878,-0.9903,-0.9892,-0.9911,-0.991,-0.9911,-0.9804,-0.9791,-0.9919,-0.9919,-0.9919,-0.9919,-0.9919,-0.9919,-0.969,-0.9743,-0.9737,-0.9794,-0.9798,-0.9837,-0.9849,-0.9863,-0.9873,-0.9918,-0.9943,-0.9941,-0.9949,-0.9977,-1.0003,-1.0002,-1.0015,-1.0038,-1.0033,-0.9933,-0.9919,-0.9905,-0.9893,-1.004,-1.0041,-1.0137,-1.0138,-1.0139]},{"header":{"parameterUnit":"m.s-1","parameterCategory":1,"la1":30.2991,"la2":30.254,"lo1":-89.0895,"lo2":-89.0444,"dy":0.0017,"dx":0.0017,"nx":28,"ny":28,"refTime":"2024-08-25T03:00:00:Z","depth":0,"parameterNumber":3,"parameterNumberName":"V-component_of_WINDS"},"data":[0,0,0,0,0,0,0,0,0,0,0,0,0,0,0,0,0,0,0,0,0,0,0,0,0,0,0,0,0,0,0,0,0,0,0,0,0,0,0,0,0,0,0,0,0,0,0,0,0,0,0,0,0,0,0,0,0,0,-2.3875,-2.3876,0,-2.3968,-2.3969,-2.397,-2.3989,-2.3988,-2.3987,-2.3987,-2.4082,-2.4085,-2.4088,0,0,0,0,0,0,0,0,0,0,0,0,0,-2.3711,-2.3714,-2.3874,-2.3876,-2.3877,-2.3968,-2.3969,-2.3971,-2.3989,-2.3988,-2.3987,-2.3986,-2.4081,-2.4085,-2.4089,0,0,0,0,0,0,0,0,0,0,0,0,0,-2.3791,-2.3715,-2.3874,-2.3897,-2.39,-2.3968,-2.3969,-2.3971,-2.3989,-2.3988,-2.3987,-2.3986,-2.408,-2.4084,-2.4089,-2.4141,0,0,-2.4104,-2.4106,0,0,0,0,0,0,0,0,-2.3787,-2.3797,-2.3893,-2.3896,-2.3899,-2.3966,-2.3947,-2.4028,-2.399,-2.3955,-2.3987,-2.3986,-2.4044,-2.4052,-2.4072,-2.4145,-2.4149,-2.4104,-2.4107,-2.4109,-2.4111,0,0,0,0,0,0,0,-2.3781,-2.3793,-2.3912,-2.3894,-2.3898,-2.3902,-2.3913,-2.3962,-2.4005,-2.3958,-2.396,-2.3971,-2.4046,-2.4067,-2.4074,-2.4151,-2.4104,-2.4108,-2.4111,-2.4113,-2.4271,-2.4272,0,0,0,0,0,0,-2.3772,-2.3788,-2.3909,-2.3914,-2.3839,-2.3906,-2.3918,-2.3945,-2.4004,-2.4012,-2.3972,-2.3971,-2.4059,-2.4069,-2.4078,-2.4141,-2.4109,-2.4114,-2.4117,-2.4269,-2.4271,-2.4272,0,0,0,0,0,0,-2.3768,-2.3782,-2.3905,-2.3852,-2.3868,-2.391,-2.3941,-2.3948,-2.3969,-2.4014,-2.4022,-2.3986,-2.4059,-2.4071,-2.4125,-2.4145,-2.4116,-2.412,-2.4268,-2.427,-2.4272,-2.4269,0,0,0,0,0,0,-2.3763,-2.3781,-2.3801,-2.3852,-2.3871,-2.395,-2.3943,-2.3951,-2.3978,-2.3978,-2.4029,-2.4037,-2.4059,-2.4118,-2.413,-2.4151,-2.4124,-2.4266,-2.4269,-2.4271,-2.4267,-2.4271,-2.4273,0,0,0,0,0,-2.3757,-2.3796,-2.3802,-2.3816,-2.3897,-2.3952,-2.3962,-2.3987,-2.3979,-2.3999,-2.4028,-2.4035,-2.4141,-2.4123,-2.4137,-2.416,-2.4265,-2.4268,-2.4271,-2.4266,-2.427,-2.4273,0,0,0,0,0,0,-2.3746,-2.3803,-2.381,-2.3867,-2.3904,-2.3955,-2.3981,-2.399,-2.403,-2.4029,-2.4058,-2.407,-2.4122,-2.4147,-2.4125,-2.4213,-2.4203,-2.4208,-2.4194,-2.4198,-2.4201,-2.4194,-2.4128,0,0,0,0,0,-2.375,-2.379,-2.3838,-2.3883,-2.3902,-2.3938,-2.3963,-2.3979,-2.4019,-2.4035,-2.4068,-2.4106,-2.4148,-2.4175,-2.4216,-2.4272,-2.4283,-2.4294,-2.4297,-2.4299,-2.4304,-2.4335,-2.434,-2.4282,-2.4282,-2.4282,0,0,-2.3758,-2.3795,-2.3818,-2.3882,-2.3913,-2.3953,-2.3951,-2.3994,-2.4025,-2.4041,-2.4094,-2.412,-2.4164,-2.4219,-2.4245,-2.4241,-2.4323,-2.4303,-2.4305,-2.4308,-2.4338,-2.4344,-2.4348,-2.4284,-2.4283,-2.4283,0,0,-2.3794,-2.3827,-2.3868,-2.3899,-2.3946,-2.397,-2.3979,-2.4029,-2.4047,-2.41,-2.4113,-2.415,-2.4222,-2.4253,-2.4278,-2.4327,-2.4334,-2.4339,-2.4354,-2.4384,-2.4388,-2.4392,-2.4409,-2.4415,-2.4344,-2.4344,-2.4344,0,-2.3799,-2.3861,-2.3887,-2.393,-2.3957,-2.3975,-2.4016,-2.4045,-2.4103,-2.4122,-2.4117,-2.4207,-2.4238,-2.4301,-2.4312,-2.4333,-2.4344,-2.4333,-2.4386,-2.439,-2.4394,-2.441,-2.4417,-2.4344,-2.4344,-2.4344,-2.4344,0,-2.3864,-2.3906,-2.3934,-2.3989,-2.402,-2.4062,-2.4095,-2.4123,-2.4136,-2.4161,-2.4215,-2.4254,-2.4302,-2.4319,-2.4332,-2.4383,-2.4379,-2.438,-2.437,-2.44,-2.4415,-2.4422,-2.4344,-2.4344,-2.4344,-2.4344,0,0,-2.3894,-2.3964,-2.3974,-2.3999,-2.4052,-2.4086,-2.4128,-2.4176,-2.4199,-2.4239,-2.4275,-2.4336,-2.4337,-2.4365,-2.4383,-2.4409,-2.4444,-2.4406,-2.4408,-2.4411,-2.4502,-2.45,-2.4507,-2.445,-2.4452,-2.4453,-2.4498,0,-2.3936,-2.4012,-2.4038,-2.4101,-2.4141,-2.4158,-2.4195,-2.4232,-2.4256,-2.4293,-2.432,-2.4362,-2.4361,-2.4378,-2.4405,-2.4434,-2.4463,-2.4432,-2.4483,-2.4485,-2.447,-2.4515,-2.4514,-2.4554,-2.4504,-2.4505,-2.4506,0,-2.3994,-2.4035,-2.4102,-2.415,-2.4168,-2.4201,-2.4247,-2.4282,-2.4324,-2.434,-2.4372,-2.4388,-2.4433,-2.4422,-2.4484,-2.4462,-2.4485,-2.4503,-2.4505,-2.451,-2.4496,-2.452,-2.4568,-2.4573,-2.4516,-2.4515,-2.4514,0,-2.4008,-2.408,-2.4129,-2.415,-2.4208,-2.4231,-2.4256,-2.4297,-2.4324,-2.4365,-2.4383,-2.4428,-2.4452,-2.4487,-2.4515,-2.4504,-2.4574,-2.4565,-2.4588,-2.4587,-2.4601,-2.4599,-2.4652,-2.4618,-2.4618,-2.4618,-2.4617,0,-2.4051,-2.4091,-2.4136,-2.4166,-2.4212,-2.4241,-2.4285,-2.4312,-2.4348,-2.4384,-2.4402,-2.4435,-2.447,-2.4508,-2.453,-2.4577,-2.4589,-2.4602,-2.4607,-2.46,-2.4598,-2.4614,-2.4612,-2.4619,-2.4619,-2.4619,-2.4618,0,-2.4074,-2.4105,-2.416,-2.4211,-2.4224,-2.4256,-2.4299,-2.4329,-2.4354,-2.4399,-2.4411,-2.4451,-2.4496,-2.4528,-2.4586,-2.46,-2.4652,-2.4657,-2.4638,-2.464,-2.466,-2.4658,-2.4724,-2.4734,-2.4694,-2.4695,-2.4695,0,-2.4098,-2.413,-2.4184,-2.4209,-2.4234,-2.4275,-2.4303,-2.4333,-2.4361,-2.4412,-2.4436,-2.4482,-2.4521,-2.4592,-2.4626,-2.4671,-2.4677,-2.4697,-2.4683,-2.4675,-2.4676,-2.4673,-2.4676,-2.4698,-2.4699,-2.4699,-2.4699,0,-2.4138,-2.4153,-2.4192,-2.4238,-2.4271,-2.4308,-2.4345,-2.4365,-2.4401,-2.4432,-2.4479,-2.4509,-2.4568,-2.4614,-2.4662,-2.4688,-2.47,-2.4704,-2.4711,-2.4703,-2.469,-2.4696,-2.4642,-2.4701,-2.4701,-2.4701,-2.4701,-2.4701,-2.4162,-2.4191,-2.4233,-2.4277,-2.4308,-2.4343,-2.4373,-2.4403,-2.4442,-2.4492,-2.4508,-2.4556,-2.4598,-2.4664,-2.469,-2.4728,-2.4727,-2.4738,-2.474,-2.4742,-2.4742,-2.4685,-2.4737,-2.4737,-2.4737,-2.4737,-2.4737,0,-2.4202,-2.4231,-2.4271,-2.4322,-2.4356,-2.4365,-2.4407,-2.4435,-2.4477,-2.4515,-2.4553,-2.4606,-2.4651,-2.4689,-2.4735,-2.4758,-2.4765,-2.4769,-2.4767,-2.4773,-2.4741,-2.4729,-2.4763,-2.4763,-2.4763,-2.4763,-2.4763,-2.4763,-2.4227,-2.4276,-2.4295,-2.4359,-2.4387,-2.4435,-2.4458,-2.449,-2.452,-2.4579,-2.4616,-2.4641,-2.4679,-2.4728,-2.4769,-2.4779,-2.4795,-2.4798,-2.4809,-2.4778,-2.4775,-2.4772,-2.4761,-2.4801,-2.4802,-2.4838,-2.4838,-2.4838]}]]